GW6393 Weather Reports


time (UTC)temp
C
wind
direction
speed
KPH
gust
KPH
rain 1hr
cm
rain 24hr
cm
rain mn
cm
humidity
%
barometer
mb
20260906224027 21 69 1.6 8.0 0.00 0.00 0.00 64 1015.3
20260906223536 22 85 3.2 8.0 0.00 0.00 0.00 64 1015.3
20260906223217 22 130 0.0 3.2 0.00 0.00 0.00 64 1015.3
20260906222525 22 130 1.6 4.8 0.00 0.00 0.00 64 1015.3
20260906222041 21 79 1.6 4.8 0.00 0.00 0.00 64 1015.4
20260906221732 22 87 1.6 6.4 0.00 0.00 0.00 64 1015.3
20260906221029 22 84 1.6 8.0 0.00 0.00 0.00 64 1015.4
20260906220521 22 83 1.6 8.0 0.00 0.00 0.00 63 1015.4
20260906220154 22 85 3.2 8.0 0.00 0.00 0.00 62 1015.5
20260906215520 22 188 0.0 6.4 0.00 0.00 0.00 62 1015.4
20260906215023 22 117 3.2 6.4 0.00 0.00 0.00 63 1015.4
20260906214637 21 202 0.0 4.8 0.00 0.00 0.00 65 1015.4
20260906214027 21 94 0.0 3.2 0.00 0.00 0.00 66 1015.4
20260906213536 21 63 0.0 4.8 0.00 0.00 0.00 66 1015.4
20260906213137 21 62 0.0 6.4 0.00 0.00 0.00 66 1015.5
20260906212539 21 92 3.2 6.4 0.00 0.00 0.00 67 1015.5
20260906212024 21 69 1.6 6.4 0.00 0.00 0.00 66 1015.5
20260906211728 21 82 3.2 6.4 0.00 0.00 0.00 66 1015.6
20260906211044 21 52 1.6 6.4 0.00 0.00 0.00 66 1015.7
20260906210534 21 104 1.6 6.4 0.00 0.00 0.00 67 1015.8
20260906210130 21 58 0.0 11.3 0.00 0.00 0.00 67 1015.8
20260906205531 21 88 6.4 11.3 0.00 0.00 0.00 67 1015.8
20260906205029 21 54 3.2 12.9 0.00 0.00 0.00 68 1016.0
20260906204635 21 119 6.4 12.9 0.00 0.00 0.00 68 1015.8
20260906204033 20 109 3.2 14.5 0.00 0.00 0.00 70 1015.8
20260906203525 20 71 8.0 14.5 0.00 0.00 0.00 69 1015.8
20260906203158 20 92 4.8 12.9 0.00 0.00 0.00 70 1015.8
20260906202523 20 124 3.2 12.9 0.00 0.00 0.00 70 1016.0
20260906202030 20 52 3.2 16.1 0.00 0.00 0.00 70 1016.0
20260906201719 20 94 4.8 16.1 0.00 0.00 0.00 70 1016.0
20260906201026 20 51 4.8 14.5 0.00 0.00 0.00 71 1015.9
20260906200524 20 94 8.0 14.5 0.00 0.00 0.00 71 1016.1
20260906200123 20 74 8.0 16.1 0.00 0.00 0.00 71 1016.0
20260906195540 20 67 9.7 14.5 0.00 0.00 0.00 70 1016.0
20260906195041 20 81 8.0 14.5 0.00 0.00 0.00 71 1016.2
20260906194650 19 67 6.4 16.1 0.00 0.00 0.00 72 1016.3
20260906194041 18 53 8.0 16.1 0.00 0.00 0.00 73 1016.4
20260906193523 18 63 6.4 16.1 0.00 0.00 0.00 72 1016.5
20260906193213 18 10 4.8 17.7 0.00 0.00 0.00 72 1016.6
20260906192545 18 65 3.2 17.7 0.00 0.00 0.00 74 1016.6
20260906192024 18 360 3.2 16.1 0.00 0.00 0.00 74 1016.7
20260906191620 17 62 3.2 22.5 0.00 0.00 0.00 75 1016.8
20260906191045 17 38 9.7 22.5 0.00 0.00 0.00 76 1016.7
20260906190544 17 30 8.0 20.9 0.00 0.00 0.00 76 1016.8
20260906190220 17 80 6.4 20.9 0.00 0.00 0.00 76 1017.0
20260906185539 17 360 8.0 20.9 0.00 0.00 0.00 77 1017.0
20260906185031 16 352 12.9 20.9 0.00 0.00 0.00 79 1017.0
20260906184700 16 352 11.3 22.5 0.00 0.00 0.00 80 1017.2
20260906184041 16 5 14.5 22.5 0.00 0.00 0.00 80 1017.3
20260906183536 15 346 14.5 22.5 0.00 0.00 0.00 81 1017.3
20260906183218 15 30 16.1 25.7 0.00 0.00 0.00 82 1017.4
20260906182531 15 360 9.7 24.1 0.00 0.00 0.00 83 1017.5
20260906182039 15 352 12.9 24.1 0.00 0.00 0.00 84 1017.6
20260906181657 15 350 12.9 24.1 0.00 0.00 0.00 86 1017.7
20260906181027 14 347 16.1 25.7 0.00 0.00 0.00 87 1017.7
20260906180524 13 336 14.5 27.4 0.00 0.00 0.00 88 1017.9
20260906180228 13 352 14.5 27.4 0.00 0.00 0.00 89 1017.8
20260906175531 13 25 14.5 25.7 0.00 0.00 0.00 89 1018.0
20260906175033 13 9 17.7 29.0 0.00 0.00 0.00 89 1018.0
20260906174719 14 15 20.9 29.0 0.00 0.00 0.00 87 1018.2
20260906174024 14 352 17.7 29.0 0.00 0.00 0.00 87 1018.3
20260906173539 15 352 19.3 24.1 0.00 0.00 0.00 84 1018.2
20260906173219 16 20 12.9 22.5 0.00 0.00 0.00 81 1018.2
20260906172548 16 360 8.0 20.9 0.00 0.00 0.00 80 1018.1
20260906172041 17 344 9.7 17.7 0.00 0.00 0.00 80 1018.2
20260906171713 17 21 4.8 12.9 0.00 0.00 0.00 80 1018.1
20260906171043 17 5 1.6 6.4 0.00 0.00 0.00 80 1018.2
20260906170542 17 70 1.6 9.7 0.00 0.00 0.00 80 1018.2
20260906170137 17 50 3.2 9.7 0.00 0.00 0.00 80 1018.2
20260906165539 17 63 1.6 9.7 0.00 0.00 0.00 80 1018.2
20260906165025 17 22 3.2 9.7 0.00 0.00 0.00 80 1018.2
20260906164702 17 65 1.6 6.4 0.00 0.00 0.00 80 1018.3
20260906164024 17 63 1.6 4.8 0.00 0.00 0.00 80 1018.3
20260906163525 17 76 1.6 4.8 0.00 0.00 0.00 80 1018.3
20260906163223 17 33 1.6 4.8 0.00 0.00 0.00 81 1018.4
20260906162534 16 89 0.0 11.3 0.00 0.00 0.00 81 1018.3
20260906162029 16 89 1.6 11.3 0.00 0.00 0.00 80 1018.4
20260906161624 16 88 3.2 11.3 0.00 0.00 0.00 80 1018.4
20260906161037 16 120 3.2 11.3 0.00 0.00 0.00 82 1018.2
20260906160523 16 97 4.8 11.3 0.00 0.00 0.00 82 1018.2
20260906160236 16 113 4.8 9.7 0.00 0.00 0.00 82 1018.2
20260906155530 16 97 6.4 9.7 0.00 0.00 0.00 82 1018.1
20260906155032 16 80 4.8 9.7 0.00 0.00 0.00 83 1018.3
20260906154729 15 88 3.2 8.0 0.00 0.00 0.00 83 1018.3
20260906154044 15 82 4.8 8.0 0.00 0.00 0.00 83 1018.4
20260906153535 15 102 3.2 6.4 0.00 0.00 0.00 83 1018.6
20260906153226 15 64 0.0 8.0 0.00 0.00 0.00 84 1018.6
20260906152546 15 84 0.0 8.0 0.00 0.00 0.00 84 1018.7
20260906152045 15 68 0.0 8.0 0.00 0.00 0.00 84 1018.6
20260906151718 15 70 3.2 8.0 0.00 0.00 0.00 84 1018.7
20260906151048 15 65 3.2 9.7 0.00 0.00 0.00 84 1018.7
20260906150523 15 79 4.8 9.7 0.00 0.00 0.00 84 1018.6
20260906150228 15 80 3.2 8.0 0.00 0.00 0.00 84 1018.7
20260906145531 15 94 3.2 9.7 0.00 0.00 0.00 85 1018.7
20260906145021 15 84 3.2 9.7 0.00 0.00 0.00 85 1018.9
20260906144721 15 63 4.8 9.7 0.00 0.00 0.00 85 1018.7
20260906144039 15 84 1.6 9.7 0.00 0.00 0.00 85 1019.0
20260906143526 15 57 3.2 14.5 0.00 0.00 0.00 85 1019.0
20260906143147 15 67 6.4 14.5 0.00 0.00 0.00 85 1018.8
20260906142527 15 65 4.8 9.7 0.00 0.00 0.00 85 1019.1
20260906142042 15 60 4.8 9.7 0.00 0.00 0.00 86 1019.3
20260906141619 15 78 3.2 6.4 0.00 0.00 0.00 86 1019.4
20260906141036 15 71 1.6 6.4 0.00 0.00 0.00 86 1019.2
20260906140542 15 18 1.6 4.8 0.00 0.00 0.00 86 1019.1
20260906140253 14 21 0.0 6.4 0.00 0.00 0.00 86 1018.8
20260906135528 14 20 1.6 8.0 0.00 0.00 0.00 86 1019.0
20260906135027 14 31 1.6 8.0 0.00 0.00 0.00 86 1018.9
20260906134718 14 336 1.6 9.7 0.00 0.00 0.00 86 1019.0
20260906134039 14 11 1.6 9.7 0.00 0.00 0.00 86 1018.8
20260906133527 14 9 3.2 6.4 0.00 0.00 0.00 85 1018.9
20260906133121 14 12 1.6 3.2 0.00 0.00 0.00 85 1019.2
20260906132532 14 19 0.0 3.2 0.00 0.00 0.00 85 1019.1
20260906132042 13 19 0.0 4.8 0.00 0.00 0.00 85 1019.0
20260906131732 13 19 1.6 4.8 0.00 0.00 0.00 85 1018.8
20260906131042 13 22 0.0 4.8 0.00 0.00 0.00 85 1018.7
20260906130539 13 360 1.6 4.8 0.00 0.00 0.00 85 1018.8
20260906130250 13 5 0.0 4.8 0.00 0.00 0.00 85 1018.8
20260906125547 13 46 1.6 6.4 0.00 0.00 0.00 85 1018.8
20260906125031 13 36 1.6 6.4 0.00 0.00 0.00 85 1018.8
20260906124756 13 29 1.6 3.2 0.00 0.00 0.00 85 1018.9
20260906124039 13 62 0.0 4.8 0.00 0.00 0.00 85 1019.0
20260906123531 13 59 1.6 4.8 0.00 0.00 0.00 85 1018.9
20260906123230 13 30 0.0 4.8 0.00 0.00 0.00 85 1018.9
20260906122525 13 65 0.0 4.8 0.00 0.00 0.00 85 1018.9
20260906122030 13 65 0.0 4.8 0.00 0.00 0.00 85 1018.9
20260906121733 13 65 0.0 3.2 0.00 0.00 0.00 85 1018.9
20260906121038 13 65 0.0 3.2 0.00 0.00 0.00 85 1019.2
20260906120541 13 65 0.0 3.2 0.00 0.00 0.00 85 1019.2
20260906120237 13 65 0.0 8.0 0.00 0.00 0.00 85 1019.1
20260906115523 13 66 1.6 8.0 0.00 0.00 0.00 85 1019.1
20260906115039 13 49 1.6 8.0 0.00 0.00 0.00 85 1019.1
20260906114648 13 19 4.8 8.0 0.00 0.00 0.00 85 1019.2
20260906114027 13 360 3.2 9.7 0.00 0.00 0.00 85 1019.1
20260906113536 13 13 4.8 9.7 0.00 0.00 0.00 86 1019.1
20260906113218 13 13 4.8 11.3 0.00 0.00 0.00 86 1019.1
20260906112529 13 360 4.8 12.9 0.00 0.00 0.00 86 1018.9
20260906112032 13 5 4.8 14.5 0.00 0.00 0.00 86 1018.8
20260906111628 13 20 6.4 14.5 0.00 0.00 0.00 86 1018.9
20260906111024 13 11 6.4 16.1 0.00 0.00 0.00 86 1018.9
20260906110543 13 352 4.8 16.1 0.00 0.00 0.00 86 1019.0
20260906110239 13 348 8.0 14.5 0.00 0.00 0.00 86 1019.1
20260906105536 13 5 8.0 16.1 0.00 0.00 0.00 87 1019.3
20260906105045 13 5 9.7 16.1 0.00 0.00 0.00 86 1019.1
20260906104736 13 352 9.7 16.1 0.00 0.00 0.00 86 1019.1
20260906104033 13 21 6.4 16.1 0.00 0.00 0.00 86 1018.8
20260906103523 13 11 6.4 16.1 0.00 0.00 0.00 86 1018.9
20260906103234 13 360 4.8 17.7 0.00 0.00 0.00 86 1019.1
20260906102536 13 49 9.7 17.7 0.00 0.00 0.00 86 1019.2
20260906102046 13 40 6.4 14.5 0.00 0.00 0.00 86 1019.2
20260906101741 13 12 6.4 14.5 0.00 0.00 0.00 86 1019.1
20260906101031 13 10 3.2 17.7 0.00 0.00 0.00 86 1019.2
20260906100538 13 360 9.7 17.7 0.00 0.00 0.00 86 1019.3
20260906100217 12 5 8.0 16.1 0.00 0.00 0.00 86 1019.5
20260906095546 12 346 8.0 17.7 0.00 0.00 0.00 87 1019.4
20260906095038 12 13 9.7 17.7 0.00 0.00 0.00 87 1019.4
20260906094717 12 15 9.7 17.7 0.00 0.00 0.00 87 1019.4
20260906094024 12 347 11.3 17.7 0.00 0.00 0.00 87 1019.3
20260906093527 12 352 11.3 17.7 0.00 0.00 0.00 87 1019.2
20260906093143 12 360 9.7 17.7 0.00 0.00 0.00 87 1019.3
20260906092530 12 352 11.3 17.7 0.00 0.00 0.00 87 1019.2
20260906092042 12 352 9.7 17.7 0.00 0.00 0.00 88 1019.3
20260906091725 12 23 9.7 16.1 0.00 0.00 0.00 87 1019.3
20260906091037 11 20 8.0 14.5 0.00 0.00 0.00 87 1019.3
20260906090536 11 5 6.4 12.9 0.00 0.00 0.00 87 1019.2
20260906090232 12 10 4.8 9.7 0.00 0.00 0.00 86 1019.3
20260906085531 12 360 3.2 6.4 0.00 0.00 0.00 86 1019.3
20260906085040 12 5 3.2 6.4 0.00 0.00 0.00 86 1019.3
20260906084648 12 5 3.2 4.8 0.00 0.00 0.00 85 1019.5
20260906084048 12 75 0.0 8.0 0.00 0.00 0.00 85 1019.5
20260906083530 12 352 1.6 9.7 0.00 0.00 0.00 85 1019.3
20260906083218 12 5 4.8 9.7 0.00 0.00 0.00 85 1019.2
20260906082539 12 14 4.8 12.9 0.00 0.00 0.00 84 1019.4
20260906082039 12 5 4.8 12.9 0.00 0.00 0.00 84 1019.4
20260906081727 12 360 6.4 14.5 0.00 0.00 0.00 84 1019.4
20260906081031 12 9 8.0 16.1 0.00 0.00 0.00 84 1019.6
20260906080532 12 350 9.7 16.1 0.00 0.00 0.00 84 1019.6
20260906080138 12 5 9.7 14.5 0.00 0.00 0.00 83 1019.6
20260906075540 13 360 6.4 14.5 0.00 0.00 0.00 83 1019.8
20260906075042 13 360 3.2 12.9 0.00 0.00 0.00 83 1019.9
20260906074654 13 360 4.8 16.1 0.00 0.00 0.00 82 1020.0
20260906074044 13 343 8.0 16.1 0.00 0.00 0.00 82 1019.9
20260906073546 13 5 8.0 14.5 0.00 0.00 0.00 81 1020.0
20260906073219 13 360 4.8 12.9 0.00 0.00 0.00 81 1020.1
20260906072530 13 352 4.8 12.9 0.00 0.00 0.00 81 1020.3
20260906072037 13 348 3.2 16.1 0.00 0.00 0.00 81 1020.3
20260906071707 13 19 8.0 17.7 0.00 0.00 0.00 81 1020.5
20260906071025 13 360 9.7 17.7 0.00 0.00 0.00 81 1020.4
20260906070542 13 5 9.7 16.1 0.00 0.00 0.00 81 1020.6
20260906070224 13 13 9.7 16.1 0.00 0.00 0.00 81 1020.7
20260906065545 13 5 8.0 14.5 0.00 0.00 0.00 80 1020.7
20260906065028 13 14 6.4 14.5 0.00 0.00 0.00 80 1020.5
20260906064710 13 326 4.8 16.1 0.00 0.00 0.00 80 1020.5
20260906064027 13 352 8.0 16.1 0.00 0.00 0.00 79 1020.5
20260906063538 13 5 9.7 16.1 0.00 0.00 0.00 79 1020.5
20260906063139 13 360 11.3 17.7 0.00 0.00 0.00 79 1020.6
20260906062536 13 5 11.3 17.7 0.00 0.00 0.00 79 1020.7
20260906062046 13 360 8.0 14.5 0.00 0.00 0.00 78 1020.7
20260906061715 14 350 8.0 16.1 0.00 0.00 0.00 78 1020.8
20260906061042 14 351 9.7 16.1 0.00 0.00 0.00 78 1020.6
20260906060524 14 5 6.4 12.9 0.00 0.00 0.00 78 1020.8
20260906060215 14 360 4.8 16.1 0.00 0.00 0.00 78 1020.9
20260906055517 14 352 8.0 16.1 0.00 0.00 0.00 77 1020.8
20260906055026 14 346 9.7 14.5 0.00 0.00 0.00 77 1020.8
20260906054659 14 15 8.0 14.5 0.00 0.00 0.00 76 1020.6
20260906054033 14 348 6.4 14.5 0.00 0.00 0.00 76 1020.9
20260906053536 14 352 8.0 14.5 0.00 0.00 0.00 76 1020.8
20260906053159 14 352 4.8 16.1 0.00 0.00 0.00 76 1020.7
20260906052537 14 352 4.8 16.1 0.00 0.00 0.00 75 1020.7
20260906052040 14 5 8.0 16.1 0.00 0.00 0.00 75 1020.7
20260906051719 14 351 8.0 14.5 0.00 0.00 0.00 75 1020.7
20260906051041 14 9 8.0 14.5 0.00 0.00 0.00 75 1020.5
20260906050526 14 5 6.4 14.5 0.00 0.00 0.00 74 1020.4
20260906050216 15 5 4.8 14.5 0.00 0.00 0.00 73 1020.2
20260906045518 15 348 6.4 14.5 0.00 0.00 0.00 72 1020.2
20260906045030 15 25 8.0 14.5 0.00 0.00 0.00 72 1020.3
20260906044624 15 19 6.4 14.5 0.00 0.00 0.00 70 1020.2
20260906044024 15 352 3.2 12.9 0.00 0.00 0.00 70 1020.2
20260906043524 15 5 6.4 12.9 0.00 0.00 0.00 70 1020.1
20260906043135 15 5 3.2 17.7 0.00 0.00 0.00 71 1020.1
20260906042527 15 352 9.7 17.7 0.00 0.00 0.00 72 1020.0
20260906042042 15 9 8.0 12.9 0.00 0.00 0.00 72 1020.0
20260906041623 15 346 6.4 11.3 0.00 0.00 0.00 72 1020.0
20260906041031 15 15 6.4 9.7 0.00 0.00 0.00 72 1020.0
20260906040537 15 352 4.8 9.7 0.00 0.00 0.00 72 1019.8
20260906040220 15 10 4.8 9.7 0.00 0.00 0.00 72 1019.8
20260906035542 15 11 3.2 8.0 0.00 0.00 0.00 72 1019.7
20260906035035 15 360 4.8 8.0 0.00 0.00 0.00 72 1019.6
20260906034619 15 360 4.8 9.7 0.00 0.00 0.00 72 1019.5
20260906034025 15 360 4.8 9.7 0.00 0.00 0.00 72 1019.5
20260906033531 15 5 4.8 12.9 0.00 0.00 0.00 71 1019.4
20260906033135 15 352 4.8 12.9 0.00 0.00 0.00 71 1019.3
20260906032526 16 13 6.4 9.7 0.00 0.00 0.00 71 1019.3
20260906032033 16 352 6.4 16.1 0.00 0.00 0.00 71 1019.4
20260906031636 16 360 6.4 16.1 0.00 0.00 0.00 70 1019.2
20260906031031 16 22 9.7 16.1 0.00 0.00 0.00 71 1019.1
20260906030524 16 24 4.8 14.5 0.00 0.00 0.00 70 1019.0
20260906030150 16 5 6.4 16.1 0.00 0.00 0.00 70 1019.0
20260906025536 16 360 8.0 17.7 0.00 0.00 0.00 70 1018.8
20260906025036 16 11 11.3 17.7 0.00 0.00 0.00 69 1018.9
20260906024622 16 360 11.3 19.3 0.00 0.00 0.00 69 1018.8
20260906024037 16 342 9.7 20.9 0.00 0.00 0.00 69 1018.8
20260906023531 16 333 12.9 22.5 0.00 0.00 0.00 68 1018.6
20260906023148 17 350 9.7 22.5 0.00 0.00 0.00 68 1018.7
20260906022521 17 360 12.9 22.5 0.00 0.00 0.00 67 1018.5
20260906022043 17 9 12.9 22.5 0.00 0.00 0.00 66 1018.6
20260906021653 17 352 12.9 20.9 0.00 0.00 0.00 66 1018.6
20260906021032 17 352 12.9 22.5 0.00 0.00 0.00 66 1018.5
20260906020529 17 344 12.9 22.5 0.00 0.00 0.00 65 1018.6
20260906020215 17 352 16.1 22.5 0.00 0.00 0.00 65 1018.5
20260906015529 18 352 16.1 24.1 0.00 0.00 0.00 64 1018.6
20260906015030 18 5 16.1 25.7 0.00 0.00 0.00 63 1018.5
20260906014653 18 57 12.9 25.7 0.00 0.00 0.00 62 1018.4
20260906014025 18 350 12.9 29.0 0.00 0.00 0.00 61 1018.5
20260906013532 18 346 16.1 29.0 0.00 0.00 0.00 58 1018.5
20260906013152 19 350 16.1 25.7 0.00 0.00 0.00 56 1018.4
20260906012531 20 5 12.9 24.1 0.00 0.00 0.00 54 1018.4
20260906012042 20 352 11.3 24.1 0.00 0.00 0.00 52 1018.5
20260906011644 20 16 12.9 22.5 0.00 0.00 0.00 50 1018.5
20260906011031 21 360 11.3 22.5 0.00 0.00 0.00 48 1018.4
20260906010535 21 46 12.9 22.5 0.00 0.00 0.00 47 1018.5
20260906010148 21 5 11.3 24.1 0.00 0.00 0.00 46 1018.4
20260906005527 22 342 12.9 24.1 0.00 0.00 0.00 45 1018.4
20260906005025 22 337 9.7 19.3 0.00 0.00 0.00 44 1018.3
20260906004644 22 52 9.7 19.3 0.00 0.00 0.00 42 1018.4
20260906004029 23 332 9.7 20.9 0.00 0.00 0.00 40 1018.3
20260906003535 23 49 8.0 24.1 0.00 0.00 0.00 38 1018.1
20260906003126 24 349 9.7 16.1 0.00 0.00 0.00 36 1018.0
20260906002523 24 21 8.0 24.1 0.00 0.00 0.00 37 1018.0
20260906002050 24 59 11.3 24.1 0.00 0.00 0.00 36 1018.2
20260906001656 24 360 9.7 22.5 0.00 0.00 0.00 36 1018.1
20260906001040 25 352 12.9 24.1 0.00 0.00 0.00 36 1018.3
20260906000526 25 23 9.7 24.1 0.00 0.00 0.00 35 1018.1
20260906000226 25 342 9.7 22.5 0.00 0.00 0.00 33 1018.0
20260905235521 26 67 6.4 19.3 0.00 0.00 0.00 32 1018.0
20260905235039 26 5 3.2 12.9 0.00 0.00 0.00 32 1018.0
20260905234716 26 49 4.8 12.9 0.00 0.00 0.00 33 1017.9
20260905234033 26 43 4.8 12.9 0.00 0.00 0.00 33 1017.9
20260905233539 26 352 3.2 14.5 0.00 0.00 0.00 33 1018.0
20260905233146 26 66 4.8 17.7 0.00 0.00 0.00 32 1018.0
20260905232526 25 72 3.2 17.7 0.00 0.00 0.00 33 1018.1
20260905232026 26 57 4.8 16.1 0.00 0.00 0.00 32 1018.1
20260905231647 26 74 6.4 17.7 0.00 0.00 0.00 32 1017.9
20260905231025 26 50 6.4 17.7 0.00 0.00 0.00 32 1018.0
20260905230539 26 69 1.6 9.7 0.00 0.00 0.00 32 1018.1
20260905230139 26 47 4.8 12.9 0.00 0.00 0.00 32 1018.0
20260905225522 26 73 3.2 9.7 0.00 0.00 0.00 32 1018.0
20260905225024 26 352 3.2 16.1 0.00 0.00 0.00 32 1018.0
20260905224633 25 64 6.4 16.1 0.00 0.00 0.00 32 1018.0